| time (UTC) | temp F | wind direction | speed MPH | gust MPH | rain 1hr in | rain 24hr in | rain mn in | humidity % | barometer mb |
| 20260509141352 | 43 | 95 | 0.0 | 2.0 | 0.12 | 0.12 | 0.12 | 96 | 1014.9 |
| 20260509140849 | 43 | 107 | 3.0 | 5.0 | 0.07 | 0.11 | 0.11 | 95 | 1014.8 |
| 20260509140346 | 43 | 111 | 5.0 | 6.0 | 0.07 | 0.10 | 0.10 | 95 | 1015.0 |
| 20260509135844 | 42 | 103 | 3.0 | 3.0 | 0.07 | 0.10 | 0.10 | 95 | 1014.9 |
| 20260509135341 | 42 | 95 | 4.0 | 5.0 | 0.00 | 0.09 | 0.09 | 95 | 1014.9 |
| 20260509134838 | 42 | 109 | 2.0 | 2.0 | 0.05 | 0.09 | 0.09 | 95 | 1015.0 |
| 20260509134335 | 42 | 97 | 3.0 | 3.0 | 0.07 | 0.08 | 0.08 | 95 | 1014.7 |
| 20260509133832 | 42 | 83 | 2.0 | 3.0 | 0.07 | 0.08 | 0.08 | 94 | 1014.6 |
| 20260509133329 | 42 | 25 | 2.0 | 3.0 | 0.05 | 0.07 | 0.07 | 94 | 1014.6 |
| 20260509132828 | 43 | 49 | 1.0 | 5.0 | 0.05 | 0.07 | 0.07 | 94 | 1014.8 |
| 20260509132326 | 43 | 96 | 5.0 | 7.0 | 0.07 | 0.06 | 0.06 | 94 | 1014.6 |
| 20260509131822 | 42 | 140 | 5.0 | 6.0 | 0.07 | 0.06 | 0.06 | 94 | 1014.8 |
| 20260509131319 | 42 | 92 | 1.0 | 2.0 | 0.00 | 0.05 | 0.05 | 94 | 1015.0 |
| 20260509130815 | 42 | 147 | 3.0 | 5.0 | 0.05 | 0.05 | 0.05 | 93 | 1014.9 |
| 20260509130311 | 42 | 108 | 3.0 | 5.0 | 0.00 | 0.04 | 0.04 | 93 | 1015.0 |
| 20260509125808 | 42 | 121 | 4.0 | 5.0 | 0.07 | 0.04 | 0.04 | 93 | 1015.1 |
| 20260509125307 | 42 | 34 | 2.0 | 3.0 | 0.07 | 0.04 | 0.04 | 93 | 1015.1 |
| 20260509124801 | 42 | 94 | 1.0 | 2.0 | 0.00 | 0.03 | 0.03 | 93 | 1015.1 |
| 20260509124257 | 42 | 125 | 5.0 | 5.0 | 0.00 | 0.03 | 0.03 | 93 | 1014.9 |
| 20260509123756 | 42 | 108 | 3.0 | 3.0 | 0.05 | 0.03 | 0.03 | 93 | 1015.2 |
| 20260509123253 | 42 | 134 | 3.0 | 5.0 | 0.05 | 0.03 | 0.03 | 92 | 1015.2 |
| 20260509122748 | 42 | 126 | 2.0 | 3.0 | 0.00 | 0.02 | 0.02 | 93 | 1015.1 |
| 20260509122246 | 42 | 126 | 1.0 | 3.0 | 0.00 | 0.02 | 0.02 | 93 | 1015.2 |
| 20260509121742 | 42 | 131 | 3.0 | 3.0 | 0.07 | 0.02 | 0.02 | 92 | 1015.3 |
| 20260509121239 | 41 | 140 | 3.0 | 3.0 | 0.07 | 0.02 | 0.02 | 92 | 1015.3 |
| 20260509120738 | 41 | 96 | 3.0 | 3.0 | 0.00 | 0.01 | 0.01 | 92 | 1015.4 |
| 20260509120235 | 41 | 131 | 2.0 | 3.0 | 0.05 | 0.01 | 0.01 | 92 | 1015.1 |
| 20260509115733 | 41 | 82 | 0.0 | 3.0 | 0.05 | 0.01 | 0.01 | 91 | 1015.4 |
| 20260509115230 | 41 | 78 | 1.0 | 2.0 | 0.00 | 0.00 | 0.00 | 91 | 1015.3 |
| 20260509114728 | 41 | 109 | 3.0 | 3.0 | 0.00 | 0.00 | 0.00 | 91 | 1015.5 |
| 20260509114226 | 41 | 132 | 2.0 | 2.0 | 0.00 | 0.00 | 0.00 | 91 | 1015.3 |
| 20260509113725 | 41 | 63 | 2.0 | 5.0 | 0.00 | 0.00 | 0.00 | 91 | 1015.3 |
| 20260509113222 | 41 | 78 | 1.0 | 2.0 | 0.00 | 0.00 | 0.00 | 91 | 1015.2 |
| 20260509112718 | 41 | 86 | 1.0 | 2.0 | 0.00 | 0.00 | 0.00 | 91 | 1015.2 |
| 20260509112216 | 40 | 88 | 2.0 | 5.0 | 0.00 | 0.00 | 0.00 | 90 | 1015.3 |
| 20260509111712 | 40 | 84 | 3.0 | 5.0 | 0.00 | 0.00 | 0.00 | 90 | 1015.3 |
| 20260509111209 | 41 | 124 | 2.0 | 5.0 | 0.00 | 0.00 | 0.00 | 90 | 1015.3 |
| 20260509110707 | 41 | 87 | 2.0 | 5.0 | 0.00 | 0.00 | 0.00 | 89 | 1015.2 |
| 20260509110203 | 41 | 72 | 3.0 | 6.0 | 0.00 | 0.00 | 0.00 | 89 | 1015.2 |
| 20260509105701 | 41 | 61 | 0.0 | 3.0 | 0.00 | 0.00 | 0.00 | 90 | 1015.0 |
| 20260509105158 | 41 | 88 | 1.0 | 3.0 | 0.00 | 0.00 | 0.00 | 90 | 1015.0 |
| 20260509104655 | 40 | 80 | 1.0 | 5.0 | 0.00 | 0.00 | 0.00 | 90 | 1014.8 |
| 20260509104152 | 40 | 124 | 2.0 | 3.0 | 0.00 | 0.00 | 0.00 | 90 | 1014.8 |
| 20260509103650 | 40 | 78 | 3.0 | 5.0 | 0.00 | 0.00 | 0.00 | 90 | 1015.0 |
| 20260509103148 | 40 | 47 | 2.0 | 3.0 | 0.00 | 0.00 | 0.00 | 90 | 1015.0 |
| 20260509102646 | 40 | 75 | 1.0 | 5.0 | 0.00 | 0.00 | 0.00 | 90 | 1014.9 |
| 20260509102142 | 40 | 79 | 2.0 | 2.0 | 0.00 | 0.00 | 0.00 | 90 | 1014.8 |
| 20260509101638 | 40 | 32 | 0.0 | 1.0 | 0.00 | 0.00 | 0.00 | 90 | 1014.6 |
| 20260509101135 | 40 | 142 | 2.0 | 3.0 | 0.00 | 0.00 | 0.00 | 90 | 1014.9 |
| 20260509100633 | 39 | 108 | 1.0 | 2.0 | 0.00 | 0.00 | 0.00 | 90 | 1014.7 |
| 20260509100130 | 39 | 36 | 0.0 | 3.0 | 0.00 | 0.00 | 0.00 | 91 | 1014.7 |
| 20260509095626 | 39 | 31 | 0.0 | 3.0 | 0.00 | 0.00 | 0.00 | 91 | 1014.7 |
| 20260509095124 | 39 | 83 | 2.0 | 2.0 | 0.00 | 0.00 | 0.00 | 91 | 1014.8 |
| 20260509094620 | 39 | 78 | 2.0 | 3.0 | 0.00 | 0.00 | 0.00 | 91 | 1015.0 |
| 20260509094117 | 39 | 116 | 2.0 | 3.0 | 0.00 | 0.00 | 0.00 | 91 | 1015.0 |
| 20260509093616 | 38 | 37 | 0.0 | 1.0 | 0.00 | 0.00 | 0.00 | 91 | 1015.1 |
| 20260509093112 | 38 | 44 | 1.0 | 2.0 | 0.00 | 0.00 | 0.00 | 91 | 1015.2 |
| 20260509092610 | 38 | 103 | 0.0 | 3.0 | 0.00 | 0.00 | 0.00 | 91 | 1015.1 |
| 20260509092108 | 38 | 53 | 1.0 | 3.0 | 0.00 | 0.00 | 0.00 | 91 | 1015.1 |
| 20260509091606 | 38 | 115 | 3.0 | 3.0 | 0.00 | 0.00 | 0.00 | 92 | 1015.0 |
| 20260509091102 | 37 | 71 | 2.0 | 5.0 | 0.00 | 0.00 | 0.00 | 92 | 1015.3 |
| 20260509090600 | 37 | 95 | 2.0 | 3.0 | 0.00 | 0.00 | 0.00 | 93 | 1015.3 |
| 20260509090057 | 37 | 345 | 0.0 | 0.0 | 0.00 | 0.00 | 0.00 | 93 | 1015.3 |
| 20260509085554 | 37 | 324 | 0.0 | 0.0 | 0.00 | 0.00 | 0.00 | 93 | 1015.3 |
| 20260509085050 | 37 | 345 | 0.0 | 1.0 | 0.00 | 0.00 | 0.00 | 93 | 1015.4 |
| 20260509084547 | 36 | 24 | 0.0 | 1.0 | 0.00 | 0.00 | 0.00 | 93 | 1015.3 |
| 20260509084044 | 36 | 340 | 0.0 | 0.0 | 0.00 | 0.00 | 0.00 | 92 | 1015.5 |
| 20260509083542 | 36 | 346 | 0.0 | 0.0 | 0.00 | 0.00 | 0.00 | 92 | 1015.7 |
| 20260509083038 | 36 | 30 | 0.0 | 1.0 | 0.00 | 0.00 | 0.00 | 92 | 1015.6 |
| 20260509082536 | 36 | 12 | 0.0 | 1.0 | 0.00 | 0.00 | 0.00 | 92 | 1015.5 |
| 20260509082033 | 36 | 3 | 0.0 | 1.0 | 0.00 | 0.00 | 0.00 | 92 | 1015.8 |
| 20260509081530 | 36 | 347 | 1.0 | 1.0 | 0.00 | 0.00 | 0.00 | 92 | 1015.7 |
| 20260509081027 | 35 | 334 | 1.0 | 1.0 | 0.00 | 0.00 | 0.00 | 92 | 1015.5 |
| 20260509080525 | 35 | 356 | 0.0 | 1.0 | 0.00 | 0.00 | 0.00 | 92 | 1015.7 |
| 20260509080023 | 35 | 1 | 0.0 | 0.0 | 0.00 | 0.00 | 0.00 | 92 | 1015.4 |
| 20260509075520 | 35 | 341 | 0.0 | 1.0 | 0.00 | 0.00 | 0.00 | 92 | 1015.2 |
| 20260509075018 | 35 | 32 | 2.0 | 2.0 | 0.00 | 0.00 | 0.00 | 92 | 1015.2 |
| 20260509074514 | 35 | 109 | 1.0 | 1.0 | 0.00 | 0.00 | 0.00 | 92 | 1015.3 |
| 20260509074011 | 35 | 167 | 2.0 | 2.0 | 0.00 | 0.00 | 0.00 | 92 | 1015.0 |
| 20260509073508 | 34 | 254 | 1.0 | 1.0 | 0.00 | 0.00 | 0.00 | 92 | 1015.2 |
| 20260509073004 | 34 | 347 | 1.0 | 1.0 | 0.00 | 0.00 | 0.00 | 92 | 1015.3 |
| 20260509072501 | 35 | 286 | 0.0 | 1.0 | 0.00 | 0.00 | 0.00 | 92 | 1015.3 |
| 20260509071957 | 34 | 186 | 2.0 | 2.0 | 0.00 | 0.00 | 0.00 | 92 | 1015.3 |
| 20260509071454 | 34 | 340 | 0.0 | 0.0 | 0.00 | 0.00 | 0.00 | 91 | 1015.2 |
| 20260509070952 | 35 | 303 | 0.0 | 0.0 | 0.00 | 0.00 | 0.00 | 91 | 1015.2 |
| 20260509070449 | 35 | 156 | 2.0 | 3.0 | 0.00 | 0.00 | 0.00 | 91 | 1015.4 |
| 20260509065944 | 34 | 256 | 1.0 | 1.0 | 0.00 | 0.00 | 0.00 | 91 | 1015.5 |
| 20260509065440 | 34 | 296 | 1.0 | 1.0 | 0.00 | 0.00 | 0.00 | 91 | 1015.5 |
| 20260509064936 | 34 | 153 | 2.0 | 2.0 | 0.00 | 0.00 | 0.00 | 92 | 1015.5 |
| 20260509064434 | 34 | 310 | 0.0 | 0.0 | 0.00 | 0.00 | 0.00 | 91 | 1015.6 |
| 20260509063932 | 34 | 2 | 0.0 | 0.0 | 0.00 | 0.00 | 0.00 | 91 | 1015.6 |
| 20260509063427 | 35 | 328 | 0.0 | 0.0 | 0.00 | 0.00 | 0.00 | 91 | 1015.6 |
| 20260509062924 | 34 | 312 | 0.0 | 0.0 | 0.00 | 0.00 | 0.00 | 91 | 1015.7 |
| 20260509062422 | 35 | 294 | 0.0 | 0.0 | 0.00 | 0.00 | 0.00 | 91 | 1015.6 |
| 20260509061919 | 35 | 319 | 0.0 | 0.0 | 0.00 | 0.00 | 0.00 | 90 | 1016.0 |
| 20260509061417 | 35 | 226 | 0.0 | 0.0 | 0.00 | 0.00 | 0.00 | 90 | 1015.6 |
| 20260509060913 | 35 | 272 | 0.0 | 0.0 | 0.00 | 0.00 | 0.00 | 91 | 1015.7 |
| 20260509060410 | 35 | 293 | 0.0 | 0.0 | 0.00 | 0.00 | 0.00 | 91 | 1015.6 |
| 20260509055900 | 35 | 315 | 0.0 | 0.0 | 0.00 | 0.00 | 0.00 | 91 | 1015.8 |
| 20260509055356 | 35 | 308 | 0.0 | 0.0 | 0.00 | 0.00 | 0.00 | 91 | 1015.8 |
| 20260509054853 | 35 | 293 | 0.0 | 0.0 | 0.00 | 0.00 | 0.00 | 90 | 1016.0 |
| 20260509054350 | 35 | 341 | 0.0 | 0.0 | 0.00 | 0.00 | 0.00 | 90 | 1016.1 |
| 20260509053848 | 36 | 306 | 0.0 | 0.0 | 0.00 | 0.00 | 0.00 | 90 | 1016.3 |
| 20260509053345 | 36 | 319 | 0.0 | 0.0 | 0.00 | 0.00 | 0.00 | 89 | 1016.0 |
| 20260509052843 | 37 | 295 | 0.0 | 0.0 | 0.00 | 0.00 | 0.00 | 89 | 1016.2 |
| 20260509052340 | 37 | 330 | 0.0 | 0.0 | 0.00 | 0.00 | 0.00 | 88 | 1016.3 |
| 20260509051838 | 37 | 302 | 0.0 | 0.0 | 0.00 | 0.00 | 0.00 | 86 | 1016.2 |
| 20260509051336 | 38 | 351 | 0.0 | 1.0 | 0.00 | 0.00 | 0.00 | 86 | 1016.1 |
| 20260509050832 | 38 | 341 | 0.0 | 1.0 | 0.00 | 0.00 | 0.00 | 86 | 1016.2 |
| 20260509050329 | 38 | 346 | 1.0 | 1.0 | 0.00 | 0.00 | 0.00 | 86 | 1016.3 |
| 20260509045826 | 39 | 336 | 0.0 | 0.0 | 0.00 | 0.00 | 0.00 | 86 | 1016.3 |
| 20260509045323 | 39 | 336 | 0.0 | 0.0 | 0.00 | 0.00 | 0.00 | 86 | 1016.2 |
| 20260509044820 | 39 | 336 | 0.0 | 0.0 | 0.00 | 0.00 | 0.00 | 85 | 1016.2 |
| 20260509044318 | 39 | 357 | 0.0 | 0.0 | 0.00 | 0.00 | 0.00 | 85 | 1016.1 |
| 20260509043814 | 39 | 346 | 1.0 | 1.0 | 0.00 | 0.00 | 0.00 | 84 | 1016.2 |
| 20260509043310 | 38 | 267 | 0.0 | 1.0 | 0.00 | 0.00 | 0.00 | 85 | 1016.2 |
| 20260509042806 | 38 | 224 | 1.0 | 2.0 | 0.00 | 0.00 | 0.00 | 85 | 1016.3 |
| 20260509042306 | 38 | 320 | 1.0 | 1.0 | 0.00 | 0.00 | 0.00 | 84 | 1016.3 |
| 20260509041759 | 37 | 296 | 0.0 | 1.0 | 0.00 | 0.00 | 0.00 | 85 | 1016.3 |
| 20260509041256 | 37 | 340 | 0.0 | 0.0 | 0.00 | 0.00 | 0.00 | 84 | 1016.3 |
| 20260509040755 | 38 | 46 | 0.0 | 1.0 | 0.00 | 0.00 | 0.00 | 85 | 1016.1 |
| 20260509040252 | 38 | 357 | 0.0 | 0.0 | 0.00 | 0.00 | 0.00 | 83 | 1016.0 |
| 20260509035749 | 38 | 30 | 0.0 | 1.0 | 0.00 | 0.03 | 0.03 | 82 | 1016.0 |
| 20260509035246 | 39 | 65 | 0.0 | 0.0 | 0.00 | 0.03 | 0.03 | 81 | 1016.1 |
| 20260509034742 | 39 | 185 | 1.0 | 1.0 | 0.00 | 0.03 | 0.03 | 79 | 1015.9 |
| 20260509034240 | 38 | 176 | 1.0 | 2.0 | 0.00 | 0.03 | 0.03 | 82 | 1015.9 |
| 20260509033737 | 38 | 67 | 1.0 | 1.0 | 0.00 | 0.03 | 0.03 | 85 | 1016.0 |
| 20260509033234 | 38 | 65 | 0.0 | 0.0 | 0.00 | 0.03 | 0.03 | 84 | 1015.8 |
| 20260509032731 | 38 | 142 | 2.0 | 2.0 | 0.00 | 0.03 | 0.03 | 85 | 1015.9 |
| 20260509032228 | 38 | 331 | 0.0 | 0.0 | 0.00 | 0.03 | 0.03 | 85 | 1016.0 |
| 20260509031725 | 38 | 228 | 0.0 | 0.0 | 0.00 | 0.03 | 0.03 | 84 | 1016.3 |
| 20260509031223 | 38 | 236 | 0.0 | 0.0 | 0.00 | 0.03 | 0.03 | 84 | 1015.9 |
| 20260509030721 | 37 | 343 | 0.0 | 0.0 | 0.00 | 0.03 | 0.03 | 85 | 1015.8 |
| 20260509030218 | 38 | 23 | 0.0 | 0.0 | 0.00 | 0.03 | 0.03 | 84 | 1015.9 |
| 20260509025714 | 38 | 353 | 0.0 | 0.0 | 0.00 | 0.03 | 0.03 | 83 | 1016.1 |
| 20260509025210 | 38 | 341 | 0.0 | 0.0 | 0.00 | 0.03 | 0.03 | 81 | 1015.9 |
| 20260509024705 | 39 | 336 | 0.0 | 0.0 | 0.00 | 0.03 | 0.03 | 80 | 1015.9 |
| 20260509024201 | 39 | 328 | 0.0 | 0.0 | 0.00 | 0.03 | 0.03 | 78 | 1015.9 |
| 20260509023659 | 40 | 329 | 0.0 | 0.0 | 0.00 | 0.03 | 0.03 | 75 | 1016.1 |
| 20260509023156 | 42 | 322 | 0.0 | 1.0 | 0.00 | 0.03 | 0.03 | 72 | 1016.0 |
| 20260509022652 | 43 | 248 | 1.0 | 1.0 | 0.00 | 0.03 | 0.03 | 69 | 1015.8 |
| 20260509022150 | 44 | 193 | 3.0 | 5.0 | 0.00 | 0.03 | 0.03 | 67 | 1016.0 |
| 20260509021646 | 44 | 203 | 2.0 | 2.0 | 0.00 | 0.03 | 0.03 | 68 | 1016.1 |
| 20260509021144 | 44 | 220 | 1.0 | 3.0 | 0.00 | 0.03 | 0.03 | 67 | 1015.9 |
| 20260509020642 | 44 | 216 | 2.0 | 3.0 | 0.00 | 0.03 | 0.03 | 66 | 1016.0 |
| 20260509020139 | 44 | 203 | 2.0 | 2.0 | 0.00 | 0.03 | 0.03 | 67 | 1015.9 |
| 20260509015637 | 43 | 205 | 2.0 | 3.0 | 0.00 | 0.03 | 0.03 | 68 | 1015.8 |
| 20260509015135 | 42 | 210 | 3.0 | 3.0 | 0.00 | 0.03 | 0.03 | 69 | 1015.7 |
| 20260509014631 | 40 | 227 | 2.0 | 2.0 | 0.00 | 0.03 | 0.03 | 74 | 1015.7 |
| 20260509014127 | 40 | 324 | 0.0 | 0.0 | 0.00 | 0.03 | 0.03 | 75 | 1015.5 |
| 20260509013625 | 41 | 326 | 0.0 | 0.0 | 0.00 | 0.03 | 0.03 | 73 | 1015.6 |
| 20260509013120 | 41 | 308 | 0.0 | 0.0 | 0.00 | 0.03 | 0.03 | 72 | 1015.7 |
| 20260509012617 | 41 | 311 | 0.0 | 0.0 | 0.00 | 0.03 | 0.03 | 70 | 1015.6 |
| 20260509012114 | 42 | 310 | 0.0 | 0.0 | 0.00 | 0.03 | 0.03 | 70 | 1015.4 |
| 20260509011612 | 43 | 302 | 0.0 | 0.0 | 0.00 | 0.03 | 0.03 | 68 | 1015.3 |
| 20260509011109 | 43 | 272 | 0.0 | 0.0 | 0.00 | 0.03 | 0.03 | 67 | 1015.4 |
| 20260509010607 | 44 | 284 | 0.0 | 0.0 | 0.00 | 0.03 | 0.03 | 65 | 1015.3 |
| 20260509005601 | 44 | 303 | 0.0 | 0.0 | 0.00 | 0.03 | 0.03 | 65 | 1015.2 |
| 20260509005056 | 44 | 313 | 0.0 | 0.0 | 0.00 | 0.03 | 0.03 | 65 | 1015.0 |
| 20260509004553 | 44 | 257 | 0.0 | 0.0 | 0.00 | 0.03 | 0.03 | 64 | 1014.8 |
| 20260509004050 | 45 | 280 | 0.0 | 0.0 | 0.00 | 0.03 | 0.03 | 63 | 1014.9 |
| 20260509003548 | 45 | 293 | 0.0 | 0.0 | 0.00 | 0.03 | 0.03 | 64 | 1014.8 |
| 20260509003045 | 46 | 296 | 0.0 | 0.0 | 0.00 | 0.03 | 0.03 | 62 | 1014.9 |
| 20260509002543 | 47 | 285 | 0.0 | 0.0 | 0.00 | 0.03 | 0.03 | 59 | 1014.6 |
| 20260509002040 | 47 | 285 | 0.0 | 0.0 | 0.00 | 0.03 | 0.03 | 58 | 1014.7 |
| 20260509001537 | 47 | 296 | 0.0 | 0.0 | 0.00 | 0.03 | 0.03 | 56 | 1014.4 |
| 20260509001033 | 47 | 280 | 0.0 | 0.0 | 0.00 | 0.03 | 0.03 | 57 | 1014.6 |
| 20260509000532 | 48 | 322 | 0.0 | 0.0 | 0.00 | 0.03 | 0.03 | 57 | 1014.6 |
| 20260509000027 | 48 | 311 | 0.0 | 0.0 | 0.00 | 0.03 | 0.03 | 56 | 1014.4 |
| 20260508235525 | 49 | 321 | 0.0 | 0.0 | 0.00 | 0.03 | 0.03 | 55 | 1014.2 |
| 20260508235021 | 50 | 322 | 0.0 | 1.0 | 0.00 | 0.03 | 0.03 | 54 | 1014.4 |
| 20260508234519 | 51 | 280 | 1.0 | 2.0 | 0.00 | 0.03 | 0.03 | 53 | 1014.2 |
| 20260508234015 | 51 | 303 | 5.0 | 6.0 | 0.00 | 0.03 | 0.03 | 51 | 1014.1 |
| 20260508233515 | 51 | 323 | 2.0 | 5.0 | 0.00 | 0.03 | 0.03 | 52 | 1014.2 |
| 20260508233012 | 51 | 303 | 6.0 | 9.0 | 0.00 | 0.03 | 0.03 | 49 | 1014.4 |
| 20260508232509 | 52 | 301 | 2.0 | 6.0 | 0.00 | 0.03 | 0.03 | 51 | 1014.3 |
| 20260508232006 | 52 | 296 | 5.0 | 7.0 | 0.00 | 0.03 | 0.03 | 48 | 1014.2 |
| 20260508231503 | 52 | 297 | 5.0 | 8.0 | 0.00 | 0.03 | 0.03 | 48 | 1014.2 |
| 20260508231000 | 52 | 298 | 5.0 | 9.0 | 0.00 | 0.03 | 0.03 | 49 | 1014.3 |
| 20260508230456 | 53 | 321 | 4.0 | 7.0 | 0.00 | 0.03 | 0.03 | 50 | 1014.3 |
| 20260508225953 | 53 | 297 | 3.0 | 7.0 | 0.00 | 0.03 | 0.03 | 49 | 1014.3 |
| 20260508225451 | 53 | 260 | 3.0 | 6.0 | 0.00 | 0.03 | 0.03 | 50 | 1014.3 |
| 20260508224947 | 53 | 324 | 4.0 | 6.0 | 0.00 | 0.03 | 0.03 | 48 | 1014.4 |
| 20260508224445 | 53 | 275 | 5.0 | 8.0 | 0.00 | 0.03 | 0.03 | 48 | 1014.3 |
| 20260508223942 | 53 | 306 | 8.0 | 9.0 | 0.00 | 0.03 | 0.03 | 48 | 1014.1 |
| 20260508223440 | 53 | 317 | 5.0 | 8.0 | 0.00 | 0.03 | 0.03 | 48 | 1014.3 |
| 20260508222937 | 54 | 293 | 12.0 | 15.0 | 0.00 | 0.03 | 0.03 | 45 | 1014.2 |
| 20260508222434 | 53 | 286 | 4.0 | 11.0 | 0.00 | 0.03 | 0.03 | 46 | 1014.2 |
| 20260508221931 | 53 | 312 | 4.0 | 11.0 | 0.00 | 0.03 | 0.03 | 53 | 1014.3 |
| 20260508221427 | 53 | 297 | 6.0 | 8.0 | 0.00 | 0.03 | 0.03 | 52 | 1014.2 |
| 20260508220923 | 53 | 314 | 3.0 | 14.0 | 0.00 | 0.03 | 0.03 | 46 | 1014.0 |
| 20260508220420 | 54 | 284 | 3.0 | 7.0 | 0.00 | 0.03 | 0.03 | 55 | 1014.1 |
| 20260508215916 | 53 | 271 | 3.0 | 8.0 | 0.00 | 0.03 | 0.03 | 54 | 1014.2 |
| 20260508215413 | 53 | 302 | 4.0 | 6.0 | 0.00 | 0.03 | 0.03 | 56 | 1014.1 |
| 20260508214910 | 53 | 261 | 5.0 | 7.0 | 0.00 | 0.03 | 0.03 | 57 | 1014.2 |
| 20260508214407 | 51 | 294 | 7.0 | 11.0 | 0.00 | 0.03 | 0.03 | 56 | 1014.4 |
| 20260508213903 | 51 | 314 | 7.0 | 10.0 | 0.00 | 0.03 | 0.03 | 58 | 1014.2 |
| 20260508213401 | 52 | 321 | 8.0 | 10.0 | 0.00 | 0.03 | 0.03 | 57 | 1014.2 |
| 20260508212856 | 51 | 297 | 5.0 | 10.0 | 0.00 | 0.03 | 0.03 | 60 | 1014.4 |
| 20260508212353 | 51 | 289 | 3.0 | 9.0 | 0.00 | 0.03 | 0.03 | 58 | 1014.2 |
| 20260508211849 | 52 | 246 | 6.0 | 8.0 | 0.00 | 0.03 | 0.03 | 58 | 1014.3 |
| 20260508211344 | 53 | 225 | 6.0 | 9.0 | 0.00 | 0.03 | 0.03 | 60 | 1014.1 |
| 20260508210842 | 54 | 316 | 5.0 | 14.0 | 0.00 | 0.03 | 0.03 | 57 | 1014.2 |
| 20260508210339 | 54 | 274 | 5.0 | 13.0 | 0.00 | 0.03 | 0.03 | 60 | 1014.2 |
| 20260508205835 | 53 | 277 | 7.0 | 15.0 | 0.00 | 0.03 | 0.03 | 59 | 1014.1 |
| 20260508205332 | 53 | 291 | 7.0 | 10.0 | 0.00 | 0.03 | 0.03 | 61 | 1014.2 |
| 20260508204828 | 53 | 309 | 5.0 | 10.0 | 0.00 | 0.03 | 0.03 | 60 | 1014.2 |
| 20260508204325 | 53 | 343 | 3.0 | 7.0 | 0.00 | 0.03 | 0.03 | 61 | 1014.2 |
| 20260508203821 | 54 | 300 | 3.0 | 8.0 | 0.00 | 0.03 | 0.03 | 59 | 1014.3 |
| 20260508203317 | 53 | 278 | 4.0 | 10.0 | 0.00 | 0.03 | 0.03 | 59 | 1014.2 |
| 20260508202813 | 52 | 258 | 6.0 | 15.0 | 0.00 | 0.03 | 0.03 | 59 | 1014.2 |
| 20260508202311 | 52 | 279 | 7.0 | 9.0 | 0.00 | 0.03 | 0.03 | 60 | 1014.4 |
| 20260508201808 | 53 | 286 | 9.0 | 14.0 | 0.00 | 0.03 | 0.03 | 61 | 1014.5 |
| 20260508201304 | 51 | 294 | 6.0 | 8.0 | 0.00 | 0.03 | 0.03 | 64 | 1014.2 |
| 20260508200801 | 50 | 304 | 3.0 | 10.0 | 0.00 | 0.03 | 0.03 | 65 | 1014.4 |
| 20260508200257 | 50 | 250 | 5.0 | 8.0 | 0.00 | 0.03 | 0.03 | 65 | 1014.4 |
| 20260508195753 | 51 | 324 | 7.0 | 9.0 | 0.00 | 0.03 | 0.03 | 64 | 1014.4 |
| 20260508195250 | 52 | 268 | 7.0 | 9.0 | 0.00 | 0.03 | 0.03 | 64 | 1014.5 |
| 20260508194746 | 51 | 277 | 7.0 | 10.0 | 0.00 | 0.03 | 0.03 | 63 | 1014.4 |
| 20260508194244 | 51 | 249 | 5.0 | 9.0 | 0.00 | 0.03 | 0.03 | 64 | 1014.5 |
| 20260508193741 | 51 | 231 | 4.0 | 10.0 | 0.00 | 0.03 | 0.03 | 64 | 1014.5 |
| 20260508193237 | 53 | 324 | 7.0 | 11.0 | 0.00 | 0.03 | 0.03 | 61 | 1014.5 |
| 20260508192733 | 53 | 302 | 4.0 | 13.0 | 0.00 | 0.03 | 0.03 | 63 | 1014.6 |
| 20260508192231 | 53 | 228 | 7.0 | 9.0 | 0.00 | 0.03 | 0.03 | 62 | 1014.5 |
| 20260508191728 | 52 | 236 | 4.0 | 13.0 | 0.00 | 0.03 | 0.03 | 63 | 1014.6 |
| 20260508191225 | 52 | 294 | 2.0 | 11.0 | 0.00 | 0.03 | 0.03 | 64 | 1014.5 |
| 20260508190722 | 52 | 314 | 5.0 | 13.0 | 0.00 | 0.03 | 0.03 | 63 | 1014.5 |
| 20260508190218 | 50 | 290 | 4.0 | 10.0 | 0.00 | 0.03 | 0.03 | 66 | 1014.8 |
| 20260508185715 | 50 | 332 | 6.0 | 11.0 | 0.00 | 0.03 | 0.03 | 65 | 1014.8 |
| 20260508185212 | 51 | 318 | 3.0 | 8.0 | 0.00 | 0.03 | 0.03 | 66 | 1014.7 |
| 20260508184709 | 51 | 283 | 6.0 | 10.0 | 0.00 | 0.03 | 0.03 | 65 | 1014.6 |
| 20260508184207 | 53 | 266 | 3.0 | 11.0 | 0.00 | 0.03 | 0.03 | 64 | 1014.8 |
| 20260508183703 | 51 | 280 | 5.0 | 7.0 | 0.00 | 0.03 | 0.03 | 66 | 1014.6 |
| 20260508183159 | 50 | 285 | 5.0 | 13.0 | 0.00 | 0.03 | 0.03 | 67 | 1014.7 |
| 20260508182655 | 53 | 280 | 8.0 | 15.0 | 0.00 | 0.03 | 0.03 | 65 | 1014.8 |
| 20260508182152 | 50 | 307 | 7.0 | 14.0 | 0.00 | 0.03 | 0.03 | 67 | 1014.9 |
| 20260508181648 | 50 | 323 | 5.0 | 14.0 | 0.00 | 0.03 | 0.03 | 66 | 1015.0 |
| 20260508181145 | 49 | 258 | 6.0 | 8.0 | 0.00 | 0.03 | 0.03 | 68 | 1015.0 |
| 20260508180642 | 50 | 270 | 5.0 | 11.0 | 0.00 | 0.03 | 0.03 | 66 | 1015.0 |
| 20260508180139 | 51 | 238 | 6.0 | 9.0 | 0.00 | 0.03 | 0.03 | 65 | 1014.7 |
| 20260508175635 | 51 | 254 | 6.0 | 9.0 | 0.00 | 0.03 | 0.03 | 64 | 1014.9 |
| 20260508175132 | 49 | 191 | 6.0 | 8.0 | 0.00 | 0.03 | 0.03 | 68 | 1014.8 |
| 20260508174630 | 49 | 302 | 8.0 | 13.0 | 0.00 | 0.03 | 0.03 | 66 | 1014.8 |
| 20260508174127 | 49 | 291 | 9.0 | 11.0 | 0.00 | 0.03 | 0.03 | 67 | 1014.9 |
| 20260508173624 | 50 | 314 | 3.0 | 8.0 | 0.00 | 0.03 | 0.03 | 68 | 1014.9 |
| 20260508173120 | 49 | 269 | 6.0 | 15.0 | 0.00 | 0.03 | 0.03 | 66 | 1014.9 |
| 20260508172617 | 49 | 223 | 8.0 | 13.0 | 0.00 | 0.03 | 0.03 | 71 | 1015.1 |
| 20260508172113 | 50 | 330 | 3.0 | 9.0 | 0.00 | 0.03 | 0.03 | 69 | 1015.2 |
| 20260508171610 | 50 | 234 | 8.0 | 13.0 | 0.00 | 0.03 | 0.03 | 69 | 1015.3 |
| 20260508171106 | 49 | 335 | 7.0 | 9.0 | 0.00 | 0.03 | 0.03 | 72 | 1015.2 |
| 20260508170604 | 49 | 260 | 5.0 | 10.0 | 0.00 | 0.03 | 0.03 | 70 | 1015.1 |
| 20260508165558 | 48 | 252 | 7.0 | 9.0 | 0.00 | 0.03 | 0.03 | 73 | 1015.3 |
| 20260508165055 | 48 | 265 | 6.0 | 10.0 | 0.00 | 0.03 | 0.03 | 75 | 1015.5 |
| 20260508164551 | 47 | 226 | 5.0 | 11.0 | 0.00 | 0.03 | 0.03 | 75 | 1015.4 |
| 20260508164048 | 48 | 249 | 6.0 | 9.0 | 0.00 | 0.03 | 0.03 | 76 | 1015.4 |
| 20260508163545 | 47 | 314 | 7.0 | 10.0 | 0.00 | 0.03 | 0.03 | 75 | 1015.3 |
| 20260508163042 | 46 | 253 | 6.0 | 10.0 | 0.00 | 0.03 | 0.03 | 78 | 1015.5 |
| 20260508162539 | 46 | 241 | 5.0 | 8.0 | 0.00 | 0.03 | 0.03 | 80 | 1015.5 |
| 20260508162037 | 46 | 209 | 5.0 | 9.0 | 0.00 | 0.03 | 0.03 | 80 | 1015.3 |
| 20260508161533 | 46 | 223 | 11.0 | 13.0 | 0.00 | 0.03 | 0.03 | 80 | 1015.6 |
| 20260508161030 | 46 | 220 | 5.0 | 7.0 | 0.00 | 0.03 | 0.03 | 82 | 1015.3 |
| 20260508160529 | 45 | 208 | 6.0 | 9.0 | 0.00 | 0.03 | 0.03 | 82 | 1015.2 |
| 20260508160025 | 45 | 299 | 4.0 | 8.0 | 0.00 | 0.03 | 0.03 | 82 | 1015.5 |
| 20260508155522 | 45 | 255 | 4.0 | 7.0 | 0.00 | 0.03 | 0.03 | 85 | 1015.3 |
| 20260508155019 | 44 | 208 | 4.0 | 7.0 | 0.00 | 0.03 | 0.03 | 87 | 1015.6 |
| 20260508154517 | 43 | 220 | 5.0 | 9.0 | 0.00 | 0.03 | 0.03 | 86 | 1015.4 |
| 20260508154013 | 42 | 218 | 5.0 | 7.0 | 0.07 | 0.03 | 0.03 | 86 | 1015.6 |
| 20260508153510 | 42 | 244 | 3.0 | 8.0 | 0.07 | 0.03 | 0.03 | 86 | 1015.5 |
| 20260508153006 | 42 | 286 | 5.0 | 15.0 | 0.00 | 0.02 | 0.02 | 85 | 1015.5 |
| 20260508152503 | 44 | 282 | 7.0 | 20.0 | 0.00 | 0.02 | 0.02 | 79 | 1015.5 |
| 20260508151959 | 47 | 307 | 9.0 | 18.0 | 0.00 | 0.02 | 0.02 | 72 | 1015.4 |
| 20260508151456 | 47 | 276 | 4.0 | 8.0 | 0.00 | 0.02 | 0.02 | 70 | 1015.2 |
| 20260508150952 | 47 | 328 | 4.0 | 7.0 | 0.00 | 0.02 | 0.02 | 71 | 1015.0 |
| 20260508150449 | 47 | 306 | 2.0 | 8.0 | 0.00 | 0.02 | 0.02 | 71 | 1014.9 |
| 20260508145945 | 47 | 310 | 3.0 | 5.0 | 0.00 | 0.02 | 0.02 | 74 | 1014.9 |
| 20260508145442 | 46 | 334 | 3.0 | 5.0 | 0.00 | 0.02 | 0.02 | 75 | 1014.9 |
| 20260508144938 | 46 | 329 | 2.0 | 5.0 | 0.05 | 0.02 | 0.02 | 79 | 1014.9 |
| 20260508144436 | 45 | 78 | 0.0 | 2.0 | 0.05 | 0.02 | 0.02 | 73 | 1014.8 |
| 20260508143933 | 47 | 291 | 7.0 | 8.0 | 0.00 | 0.01 | 0.01 | 69 | 1015.0 |
| 20260508143431 | 47 | 294 | 4.0 | 6.0 | 0.00 | 0.01 | 0.01 | 69 | 1014.9 |
| 20260508142927 | 47 | 321 | 5.0 | 6.0 | 0.00 | 0.01 | 0.01 | 68 | 1014.8 |
| 20260508142424 | 47 | 303 | 5.0 | 6.0 | 0.00 | 0.01 | 0.01 | 69 | 1014.9 |
| 20260508141920 | 47 | 226 | 6.0 | 7.0 | 0.00 | 0.01 | 0.01 | 70 | 1014.6 |